Volver al catálogo

SL-8 DEB

ActivoUNKNOWN
NORAD 10013·DEBRIS·🇷🇺 Russia

Lanzado May 19, 1977 desde Plesetsk Cosmodrome

Loading…

Próximos Pases (próximas 24 horas)

TLE

ActualizadoSource: Space-Track

Época: Sep 14, 2026, 07:34 UTC

1 10013U 77036C   26257.31528337 -.00000071  00000-0 -59902-4 0  9991
2 10013  65.8688  17.6942 0702817  10.6253  13.9215 12.30816848196591

Sigue SL-8 DEB en tiempo real con AllMySat

Download on the App Store